Salina, KS

5:58 PM CDT on June 24, 2017 (GMT -0500)
Salina Municipal

Weather History for KSLN - August, 2014

Change the Weather History Date:

Tuesday, August 26, 2014

  Actual Average Record
Temperature  
Mean Temperature 81 °F 78 °F  
Max Temperature 93 °F 90 °F 110 °F (1921)
Min Temperature 69 °F 67 °F 43 °F (1910)
Degree Days  
Heating Degree Days 0 0  
Month to date heating degree days 0 0  
Since 1 June heating degree days 1 7  
Since 1 July heating degree days 0 0  
Cooling Degree Days 16 13  
Month to date cooling degree days 450 392  
Year to date cooling degree days 1482 1346  
Since 1 June cooling degree days 1250 1218  
Growing Degree Days 31 (Base 50)    
Moisture  
Dew Point 65 °F    
Average Humidity 60    
Maximum Humidity 78    
Minimum Humidity 41    
Precipitation  
Precipitation 0.10 in 0.12 in 1.34 in (2016)
Month to date precipitation 2.31 3.36  
Year to date precipitation 18.62 23.75  
Sea Level Pressure  
Sea Level Pressure 30.05 in    
Wind  
Wind Speed 9 mph (ESE)    
Max Wind Speed 28 mph    
Max Gust Speed 36 mph    
Visibility 10 miles    
Events Rain , Thunderstorm    
T = Trace of Precipitation, MM = Missing Value Source: NWS Daily Summary

Daily Weather History Graph

Daily Weather History Graph

Search for Another Location

Airport or City:

Trip Planner

Search our weather history database for the weather conditions in past years. The results will help you decide how hot, cold, wet, or windy it might be!

Date:

Astronomy

Aug. 26, 2014 Rise Set
Actual Time 6:54 AM CDT 8:09 PM CDT
Civil Twilight 6:26 AM CDT 8:37 PM CDT
Nautical Twilight 5:53 AM CDT 9:10 PM CDT
Astronomical Twilight 5:18 AM CDT 9:44 PM CDT
Moon 7:54 AM CDT (8/26) 8:33 PM CDT (8/26)
Length of Visible Light 14h 10m
Length of Day
13h 15m
New Moon, 1% of the Moon is Illuminated
Aug 26
New Moon
Sep 2
First Quarter
Sep 8
Full
Sep 15
Last Quarter
Sep 24
New

Hourly Weather History & Observations

Time (CDT) Temp. Heat Index Dew Point Humidity Pressure Visibility Wind Dir Wind Speed Gust Speed Precip Events Conditions
12:53 AM 73.0 °F - 63.0 °F 71% 30.04 in 10.0 mi NNW 10.4 mph - N/A   Scattered Clouds
1:26 AM 72.0 °F - 64.0 °F 76% 30.12 in 10.0 mi West 11.5 mph - N/A Thunderstorm Mostly Cloudy
1:45 AM 72.0 °F - 64.9 °F 78% 30.12 in 10.0 mi West 6.9 mph - 0.00 in Rain , Thunderstorm Light Thunderstorms and Rain
1:53 AM 71.1 °F - 64.9 °F 81% 30.06 in 10.0 mi West 8.1 mph - 0.00 in Rain , Thunderstorm Light Thunderstorms and Rain
2:00 AM 71.1 °F - 64.9 °F 81% 30.09 in 10.0 mi West 4.6 mph - 0.00 in Thunderstorm Mostly Cloudy
2:11 AM 71.1 °F - 64.9 °F 81% 30.07 in 10.0 mi WNW 10.4 mph - 0.00 in Rain , Thunderstorm Light Thunderstorms and Rain
2:26 AM 71.1 °F - 64.9 °F 81% 30.06 in 10.0 mi Variable 3.5 mph - 0.01 in Rain , Thunderstorm Light Rain
2:36 AM 73.0 °F - 64.0 °F 73% 30.05 in 10.0 mi North - - 0.02 in Rain , Thunderstorm Light Thunderstorms and Rain
2:53 AM 73.0 °F - 63.0 °F 71% 29.99 in 5.0 mi WNW 20.7 mph 35.7 mph 0.07 in Rain , Thunderstorm Thunderstorms and Rain
3:21 AM 73.0 °F - 64.0 °F 73% 30.01 in 10.0 mi East 4.6 mph - 0.03 in Thunderstorm Mostly Cloudy
3:31 AM 73.0 °F - 64.9 °F 76% 29.99 in 10.0 mi ESE 6.9 mph - 0.03 in   Scattered Clouds
3:53 AM 73.4 °F - 64.4 °F 73% 29.98 in 10.0 mi SE 11.5 mph - N/A   Clear
4:53 AM 73.0 °F - 64.9 °F 76% 29.97 in 10.0 mi East 6.9 mph - N/A   Clear
5:53 AM 71.1 °F - 63.0 °F 75% 30.03 in 10.0 mi NNE 12.7 mph - N/A   Partly Cloudy
6:53 AM 69.8 °F - 62.6 °F 78% 30.11 in 10.0 mi ENE 9.2 mph - N/A   Mostly Cloudy
7:53 AM 69.1 °F - 61.0 °F 75% 30.09 in 10.0 mi ESE 6.9 mph - N/A   Clear
8:53 AM 73.0 °F - 63.0 °F 71% 30.08 in 10.0 mi East 11.5 mph - N/A   Clear
9:53 AM 77.0 °F - 64.4 °F 65% 30.13 in 10.0 mi ESE 11.5 mph - N/A   Clear
10:53 AM 82.0 °F 83.8 °F 64.9 °F 56% 30.09 in 10.0 mi ESE 15.0 mph - N/A   Clear
11:53 AM 88.0 °F 89.3 °F 64.0 °F 45% 30.07 in 10.0 mi East 11.5 mph - N/A   Clear
12:53 PM 91.0 °F 93.0 °F 64.9 °F 42% 30.06 in 10.0 mi SSE 11.5 mph - N/A   Clear
1:53 PM 91.9 °F 95.4 °F 66.9 °F 44% 30.05 in 10.0 mi South 8.1 mph - N/A   Mostly Cloudy
2:53 PM 90.0 °F 92.8 °F 66.9 °F 46% 30.04 in 10.0 mi SSW 5.8 mph - 0.00 in   Partly Cloudy
3:08 PM 93.0 °F 96.4 °F 66.9 °F 42% 30.08 in 10.0 mi Variable 3.5 mph - N/A Thunderstorm Clear
3:53 PM 87.8 °F 89.4 °F 64.4 °F 46% 30.06 in 10.0 mi ESE 12.7 mph - N/A   Partly Cloudy
4:53 PM 88.0 °F 89.3 °F 64.0 °F 45% 30.01 in 10.0 mi SE 12.7 mph - N/A   Clear
5:53 PM 90.0 °F 92.8 °F 66.9 °F 46% 29.99 in 10.0 mi SE 13.8 mph - N/A   Clear
6:53 PM 89.1 °F 91.0 °F 64.9 °F 45% 29.98 in 10.0 mi East 6.9 mph - N/A   Clear
7:53 PM 84.9 °F 86.1 °F 64.0 °F 49% 30.00 in 10.0 mi East 5.8 mph - N/A   Mostly Cloudy
8:53 PM 82.9 °F 85.0 °F 66.0 °F 56% 30.01 in 10.0 mi ESE 4.6 mph - N/A   Mostly Cloudy
9:53 PM 81.0 °F 83.3 °F 66.9 °F 62% 30.02 in 10.0 mi ESE 6.9 mph - N/A   Scattered Clouds
10:53 PM 81.0 °F 83.3 °F 66.9 °F 62% 30.03 in 10.0 mi Calm Calm - N/A   Scattered Clouds
11:53 PM 79.0 °F - 66.9 °F 66% 30.03 in 10.0 mi East 4.6 mph - N/A   Overcast